Vertical_Velocity
-0 1 -1 -1 -1 -1 -3 -2 -3 -5 -6 -6 -5 -3 0 -1 -1 -0 -1 -1 -1 -0
-1 -2 -4 -3 2 1 -1 -3 -2 1 -1 -3 -3 -1 -0 -4 -4 1 1 -0 1 2
-7 -4 -3 -3 -1 -1 -2 -1 -3 -1 -1 -2 -2 -1 -0 -2 0 -1 -1 -1 -2 1
-1 -0 -5 -3 -1 -4 -1 -2 -4 -4 -1 -2 -3 0 -2 -1 -1 -4 -3 2 -3 -2
-5 -4 -1 -4 -4 1 -4 1 -4 -1 -2 -3 -3 -1 -1 -2 1 -1 -2 2 0 -1
-0 -4 -5 -2 -3 -3 -2 -3 0 -3 -2 -1 -1 -1 -1 0 -0 -0 0 -0 0 0
-4 -5 -4 -4 -3 -2 1 -4 0 1 0 -2 0 0 0 -0 -1 -1 -1 -1 -2 -3
-5 -2 -1 -3 1 1 -0 -0 1 -1 0 -2 2 -1 1 5 4 3 -1 -2 0 -2
4 -1 -2 0 -2 0 -3 0 0 -1 2 -5 -2 2 0 2 3 0 -1 -4 -2 -5
-3 -3 -2 -5 -0 -0 -2 -0 -1 -3 2 -4 -6 2 -2 0 8 9 7 9 11 13
-5 -2 -1 -3 -1 2 -0 -1 -3 -4 -2 -4 -8 4 -2 1 6 3 -2 2 -0 -0
4 -7 -3 -3 -1 -0 -4 -4 -5 2 -4 1 -8 -2 5 4 1 -0 -7 -2 0 4
0 -4 -3 1 -2 -3 -1 -2 2 -6 0 -1 -5 -1 1 6 2 -1 -2 -6 -6 -2
2 -0 2 -5 3 -5 -3 -1 -1 -4 -3 -2 7 -4 -1 2 6 15 8 7 3 2
Height
1534 1529 1527 1521 1517 1512 1507 1501 1497 1492 1489 1485 1481 1477 1473 1468 1464 1460 1456 1452 1451 1449
1529 1525 1520 1516 1512 1506 1501 1495 1489 1485 1479 1476 1472 1468 1463 1458 1454 1451 1446 1443 1440 1438
1524 1520 1516 1511 1504 1498 1493 1487 1482 1477 1470 1465 1461 1457 1453 1447 1443 1439 1436 1433 1430 1428
1519 1514 1510 1504 1497 1492 1485 1479 1473 1468 1461 1454 1450 1446 1441 1436 1432 1428 1424 1423 1420 1417
1512 1507 1501 1496 1492 1485 1477 1471 1463 1458 1451 1445 1440 1435 1430 1424 1421 1416 1413 1411 1409 1405
1506 1501 1496 1490 1482 1477 1469 1462 1455 1448 1441 1435 1429 1423 1418 1413 1408 1404 1401 1399 1397 1395
1498 1492 1487 1480 1474 1465 1460 1452 1446 1439 1432 1426 1419 1412 1406 1401 1395 1391 1388 1386 1383 1381
1490 1485 1477 1471 1464 1457 1451 1444 1437 1429 1422 1415 1408 1401 1395 1391 1385 1379 1374 1371 1368 1367
1487 1481 1476 1468 1459 1449 1441 1435 1427 1420 1413 1405 1398 1392 1388 1383 1375 1370 1364 1359 1357 1352
1480 1471 1465 1461 1453 1442 1433 1426 1418 1411 1403 1396 1389 1382 1378 1372 1365 1358 1352 1347 1343 1339
1476 1471 1460 1452 1446 1436 1426 1417 1409 1401 1395 1388 1380 1374 1367 1360 1353 1345 1338 1333 1328 1324
1469 1461 1455 1446 1438 1430 1419 1409 1401 1394 1387 1379 1369 1363 1357 1349 1341 1331 1323 1317 1312 1308
1464 1455 1449 1441 1432 1423 1414 1403 1396 1388 1380 1371 1362 1354 1346 1339 1330 1319 1310 1302 1295 1290
1460 1449 1443 1436 1427 1416 1408 1400 1391 1381 1372 1365 1357 1347 1339 1330 1321 1310 1299 1290 1281 1274